TimeCST,TemperatureF,Dew PointF,Humidity,Sea Level PressureIn,VisibilityMPH,Wind Direction,Wind SpeedMPH,Gust SpeedMPH,PrecipitationIn,Events,Conditions,WindDirDegrees,DateUTC
12:15 AM,33.8,12.2,41,29.90,10.0,South,9.2,-,N/A,,Clear,190,2012-12-13 06:15:00
12:35 AM,28.4,12.2,51,29.90,10.0,South,12.7,-,N/A,,Clear,190,2012-12-13 06:35:00
12:55 AM,30.2,12.2,47,29.90,10.0,South,12.7,-,N/A,,Clear,190,2012-12-13 06:55:00
1:15 AM,30.2,14.0,51,29.90,10.0,South,11.5,-,N/A,,Clear,190,2012-12-13 07:15:00
1:35 AM,28.4,14.0,55,29.90,10.0,SSW,11.5,-,N/A,,Clear,210,2012-12-13 07:35:00
1:55 AM,30.2,14.0,51,29.90,10.0,SSW,9.2,-,N/A,,Clear,200,2012-12-13 07:55:00
2:15 AM,30.2,14.0,51,29.91,10.0,SW,4.6,-,N/A,,Clear,220,2012-12-13 08:15:00
2:35 AM,32.0,15.8,51,29.91,10.0,SW,10.4,-,N/A,,Clear,220,2012-12-13 08:35:00
2:55 AM,32.0,14.0,48,29.92,10.0,SW,10.4,-,N/A,,Clear,230,2012-12-13 08:55:00
3:15 AM,33.8,14.0,44,29.92,10.0,WSW,8.1,-,N/A,,Clear,240,2012-12-13 09:15:00
3:35 AM,32.0,14.0,48,29.93,10.0,SW,5.8,-,N/A,,Clear,230,2012-12-13 09:35:00
3:55 AM,30.2,12.2,47,29.93,10.0,SSW,8.1,-,N/A,,Clear,200,2012-12-13 09:55:00
4:15 AM,30.2,14.0,51,29.92,10.0,WSW,4.6,-,N/A,,Clear,240,2012-12-13 10:15:00
4:35 AM,26.6,12.2,55,29.92,10.0,SSW,5.8,-,N/A,,Clear,210,2012-12-13 10:35:00
4:55 AM,26.6,12.2,55,29.92,10.0,SW,4.6,-,N/A,,Clear,220,2012-12-13 10:55:00
5:15 AM,28.4,14.0,55,29.94,10.0,SW,9.2,-,N/A,,Clear,230,2012-12-13 11:15:00
5:35 AM,26.6,12.2,55,29.94,10.0,SW,3.5,-,N/A,,Clear,230,2012-12-13 11:35:00
5:55 AM,24.8,12.2,59,29.95,10.0,Calm,Calm,-,N/A,,Clear,0,2012-12-13 11:55:00
6:15 AM,26.6,10.4,51,29.96,10.0,Calm,Calm,-,N/A,,Clear,0,2012-12-13 12:15:00
6:35 AM,28.4,12.2,51,29.96,10.0,WSW,5.8,-,N/A,,Clear,250,2012-12-13 12:35:00
6:55 AM,28.4,12.2,51,29.96,10.0,West,3.5,-,N/A,,Clear,260,2012-12-13 12:55:00
7:15 AM,26.6,12.2,55,29.97,10.0,Calm,Calm,-,N/A,,Clear,0,2012-12-13 13:15:00
7:35 AM,26.6,12.2,55,29.97,9.0,Calm,Calm,-,N/A,,Clear,0,2012-12-13 13:35:00
7:55 AM,24.8,12.2,59,29.98,5.0,Calm,Calm,-,N/A,,Clear,0,2012-12-13 13:55:00
8:15 AM,24.8,12.2,59,29.98,4.0,Calm,Calm,-,N/A,,Clear,0,2012-12-13 14:15:00
8:35 AM,28.4,14.0,55,29.99,2.5,Calm,Calm,-,N/A,,Clear,0,2012-12-13 14:35:00
8:55 AM,32.0,15.8,51,30.00,8.0,Calm,Calm,-,N/A,,Clear,0,2012-12-13 14:55:00
9:15 AM,33.8,15.8,48,30.01,7.0,WSW,5.8,-,N/A,,Clear,250,2012-12-13 15:15:00
9:35 AM,37.4,17.6,45,30.02,8.0,Calm,Calm,-,N/A,,Clear,0,2012-12-13 15:35:00
9:55 AM,41.0,17.6,39,30.02,10.0,WNW,5.8,-,N/A,,Clear,300,2012-12-13 15:55:00
10:15 AM,41.0,17.6,39,30.03,10.0,NW,4.6,-,N/A,,Clear,320,2012-12-13 16:15:00
10:35 AM,46.4,19.4,34,30.03,10.0,NW,9.2,-,N/A,,Clear,310,2012-12-13 16:35:00
10:55 AM,46.4,19.4,34,30.03,10.0,NNW,12.7,-,N/A,,Clear,340,2012-12-13 16:55:00
11:15 AM,48.2,21.2,34,30.03,10.0,NNW,9.2,-,N/A,,Clear,340,2012-12-13 17:15:00
11:35 AM,51.8,21.2,30,30.03,10.0,North,8.1,-,N/A,,Clear,350,2012-12-13 17:35:00
11:55 AM,51.8,21.2,30,30.03,10.0,North,6.9,-,N/A,,Clear,10,2012-12-13 17:55:00
12:15 PM,51.8,21.2,30,30.03,10.0,NE,6.9,-,N/A,,Clear,40,2012-12-13 18:15:00
12:35 PM,53.6,21.2,28,30.02,10.0,NE,6.9,-,N/A,,Clear,50,2012-12-13 18:35:00
12:55 PM,53.6,21.2,28,30.02,10.0,East,4.6,-,N/A,,Clear,80,2012-12-13 18:55:00
1:15 PM,53.6,23.0,30,30.01,10.0,East,3.5,-,N/A,,Clear,80,2012-12-13 19:15:00
1:35 PM,55.4,23.0,29,30.01,10.0,NE,5.8,-,N/A,,Clear,50,2012-12-13 19:35:00
1:55 PM,55.4,23.0,29,30.01,10.0,Calm,Calm,-,N/A,,Clear,0,2012-12-13 19:55:00
2:15 PM,55.4,21.2,26,30.00,10.0,North,6.9,-,N/A,,Clear,10,2012-12-13 20:15:00
2:35 PM,55.4,21.2,26,30.00,10.0,NNE,4.6,-,N/A,,Clear,20,2012-12-13 20:35:00
2:55 PM,53.6,21.2,28,30.00,10.0,North,5.8,-,N/A,,Clear,10,2012-12-13 20:55:00
3:15 PM,53.6,21.2,28,30.00,10.0,NE,4.6,-,N/A,,Clear,40,2012-12-13 21:15:00
3:35 PM,53.6,21.2,28,30.01,10.0,Calm,Calm,-,N/A,,Clear,0,2012-12-13 21:35:00
3:55 PM,53.6,21.2,28,30.00,10.0,East,6.9,-,N/A,,Clear,80,2012-12-13 21:55:00
4:35 PM,46.4,21.2,37,30.01,10.0,ENE,6.9,-,N/A,,Clear,70,2012-12-13 22:35:00
4:55 PM,44.6,19.4,37,30.00,5.0,ENE,6.9,-,N/A,,Clear,60,2012-12-13 22:55:00
5:15 PM,41.0,19.4,42,30.01,10.0,ENE,5.8,-,N/A,,Clear,60,2012-12-13 23:15:00
5:35 PM,39.2,19.4,45,30.01,3.0,ENE,6.9,-,N/A,,Clear,70,2012-12-13 23:35:00
6:15 PM,35.6,15.8,44,30.01,8.0,East,8.1,-,N/A,,Clear,80,2012-12-14 00:15:00
6:35 PM,33.8,15.8,48,30.01,6.0,East,8.1,-,N/A,,Clear,80,2012-12-14 00:35:00
6:55 PM,32.0,17.6,55,30.01,7.0,East,8.1,-,N/A,,Clear,80,2012-12-14 00:55:00
7:15 PM,30.2,15.8,55,30.01,8.0,East,8.1,-,N/A,,Clear,80,2012-12-14 01:15:00
7:35 PM,30.2,15.8,55,30.02,9.0,East,6.9,-,N/A,,Clear,80,2012-12-14 01:35:00
7:55 PM,32.0,17.6,55,30.02,7.0,ENE,4.6,-,N/A,,Clear,70,2012-12-14 01:55:00
8:15 PM,30.2,15.8,55,30.02,8.0,East,6.9,-,N/A,,Clear,80,2012-12-14 02:15:00
8:35 PM,30.2,15.8,55,30.01,10.0,East,9.2,-,N/A,,Clear,100,2012-12-14 02:35:00
8:55 PM,30.2,17.6,60,30.00,10.0,East,8.1,-,N/A,,Clear,100,2012-12-14 02:55:00
9:15 PM,30.2,17.6,60,30.01,10.0,East,6.9,-,N/A,,Clear,100,2012-12-14 03:15:00
9:35 PM,28.4,17.6,64,30.01,10.0,ESE,4.6,-,N/A,,Clear,110,2012-12-14 03:35:00
9:55 PM,30.2,17.6,60,30.01,10.0,Calm,Calm,-,N/A,,Clear,0,2012-12-14 03:55:00
10:15 PM,28.4,17.6,64,30.01,10.0,Calm,Calm,-,N/A,,Clear,0,2012-12-14 04:15:00
10:35 PM,28.4,17.6,64,30.01,10.0,Calm,Calm,-,N/A,,Clear,0,2012-12-14 04:35:00
10:55 PM,28.4,17.6,64,30.00,10.0,East,3.5,-,N/A,,Clear,80,2012-12-14 04:55:00
11:15 PM,26.6,15.8,64,30.00,10.0,Calm,Calm,-,N/A,,Clear,0,2012-12-14 05:15:00
11:35 PM,26.6,17.6,69,29.99,10.0,Calm,Calm,-,N/A,,Clear,0,2012-12-14 05:35:00
11:55 PM,26.6,17.6,69,29.98,10.0,East,4.6,-,N/A,,Clear,80,2012-12-14 05:55:00